Time,TemperatureF,DewpointF,PressureIn,WindDirection,WindDirectionDegrees,WindSpeedMPH,WindSpeedGustMPH,Humidity,HourlyPrecipIn,Conditions,Clouds,dailyrainin,SolarRadiationWatts/m^2,SoftwareType,DateUTC
2013-09-02 00:04:00,65.9,60.2,29.90,WNW,290,1.0,1.0,82,0.00,,,0.00,0,Wunderground v.1.15,2013-09-02 05:04:00,
2013-09-02 00:10:00,65.6,60.0,29.90,WNW,301,5.0,5.0,82,0.00,,,0.00,0,Wunderground v.1.15,2013-09-02 05:10:00,
2013-09-02 00:15:00,65.4,60.1,29.90,WNW,303,0.0,5.0,83,0.00,,,0.00,0,Wunderground v.1.15,2013-09-02 05:15:00,
2013-09-02 00:21:00,65.2,59.9,29.90,NW,304,1.0,2.0,83,0.00,,,0.00,0,Wunderground v.1.15,2013-09-02 05:21:00,
2013-09-02 00:26:00,65.1,59.8,29.90,NW,304,1.0,2.0,83,0.00,,,0.00,0,Wunderground v.1.15,2013-09-02 05:26:00,
2013-09-02 00:32:00,64.9,59.9,29.90,NW,305,4.0,4.0,84,0.00,,,0.00,0,Wunderground v.1.15,2013-09-02 05:32:00,
2013-09-02 00:37:00,64.7,59.8,29.90,WNW,301,4.0,4.0,84,0.00,,,0.00,0,Wunderground v.1.15,2013-09-02 05:37:00,
2013-09-02 00:42:00,64.6,60.0,29.90,NW,317,1.0,5.0,85,0.00,,,0.00,0,Wunderground v.1.15,2013-09-02 05:42:00,
2013-09-02 00:48:00,64.4,59.8,29.90,WNW,303,0.0,5.0,85,0.00,,,0.00,0,Wunderground v.1.15,2013-09-02 05:48:00,
2013-09-02 00:53:00,64.4,59.8,29.90,NW,305,0.0,5.0,85,0.00,,,0.00,0,Wunderground v.1.15,2013-09-02 05:53:00,
2013-09-02 00:59:00,64.3,60.0,29.90,NW,305,0.0,5.0,86,0.00,,,0.00,0,Wunderground v.1.15,2013-09-02 05:59:00,
2013-09-02 01:04:00,64.2,59.9,29.90,NW,309,5.0,5.0,86,0.00,,,0.00,0,Wunderground v.1.15,2013-09-02 06:04:00,
2013-09-02 01:10:00,64.0,59.7,29.90,NW,309,0.0,1.0,86,0.00,,,0.00,0,Wunderground v.1.15,2013-09-02 06:10:00,
2013-09-02 01:15:00,63.9,60.0,29.90,NW,307,0.0,2.0,87,0.00,,,0.00,0,Wunderground v.1.15,2013-09-02 06:15:00,
2013-09-02 01:21:00,63.8,59.9,29.90,WNW,301,6.0,6.0,87,0.00,,,0.00,0,Wunderground v.1.15,2013-09-02 06:21:00,
2013-09-02 01:26:00,63.8,59.9,29.90,NW,318,2.0,6.0,87,0.00,,,0.00,0,Wunderground v.1.15,2013-09-02 06:26:00,
2013-09-02 01:32:00,63.7,59.8,29.91,NW,322,1.0,2.0,87,0.00,,,0.00,0,Wunderground v.1.15,2013-09-02 06:32:00,
2013-09-02 01:37:00,63.7,60.1,29.91,WNW,302,4.0,4.0,88,0.00,,,0.00,0,Wunderground v.1.15,2013-09-02 06:37:00,
2013-09-02 01:43:00,63.8,60.2,29.91,WNW,298,6.0,7.0,88,0.00,,,0.00,0,Wunderground v.1.15,2013-09-02 06:43:00,
2013-09-02 01:48:00,63.9,60.3,29.91,WNW,297,2.0,7.0,88,0.00,,,0.00,0,Wunderground v.1.15,2013-09-02 06:48:00,
2013-09-02 01:54:00,63.9,60.3,29.91,WNW,289,5.0,5.0,88,0.00,,,0.00,0,Wunderground v.1.15,2013-09-02 06:54:00,
2013-09-02 01:59:00,63.9,60.3,29.91,WNW,295,6.0,7.0,88,0.00,,,0.00,0,Wunderground v.1.15,2013-09-02 06:59:00,
2013-09-02 02:04:00,63.8,60.2,29.91,WNW,286,5.0,6.0,88,0.00,,,0.00,0,Wunderground v.1.15,2013-09-02 07:04:00,
2013-09-02 02:09:00,63.8,60.5,29.92,NW,304,1.0,6.0,89,0.00,,,0.00,0,Wunderground v.1.15,2013-09-02 07:09:00,
2013-09-02 02:14:00,63.8,60.5,29.92,WNW,300,1.0,5.0,89,0.00,,,0.00,0,Wunderground v.1.15,2013-09-02 07:14:00,
2013-09-02 02:19:00,63.7,60.4,29.92,WNW,290,4.0,5.0,89,0.00,,,0.00,0,Wunderground v.1.15,2013-09-02 07:19:00,
2013-09-02 02:24:00,63.7,60.4,29.92,WNW,291,0.0,5.0,89,0.00,,,0.00,0,Wunderground v.1.15,2013-09-02 07:24:00,
2013-09-02 02:29:00,63.6,60.3,29.92,WNW,291,0.0,5.0,89,0.00,,,0.00,0,Wunderground v.1.15,2013-09-02 07:29:00,
2013-09-02 02:34:00,63.5,60.2,29.92,WNW,293,0.0,7.0,89,0.00,,,0.00,0,Wunderground v.1.15,2013-09-02 07:34:00,
2013-09-02 02:39:00,63.3,60.0,29.92,NW,312,2.0,7.0,89,0.00,,,0.00,0,Wunderground v.1.15,2013-09-02 07:39:00,
2013-09-02 02:44:00,63.2,59.9,29.92,WNW,300,1.0,8.0,89,0.00,,,0.00,0,Wunderground v.1.15,2013-09-02 07:44:00,
2013-09-02 02:49:00,63.2,59.9,29.93,WNW,302,5.0,8.0,89,0.00,,,0.00,0,Wunderground v.1.15,2013-09-02 07:49:00,
2013-09-02 02:54:00,63.1,59.8,29.93,NW,304,0.0,5.0,89,0.00,,,0.00,0,Wunderground v.1.15,2013-09-02 07:54:00,
2013-09-02 02:59:00,63.1,59.8,29.93,NW,305,0.0,5.0,89,0.00,,,0.00,0,Wunderground v.1.15,2013-09-02 07:59:00,
2013-09-02 03:04:00,63.1,59.8,29.93,WNW,300,0.0,5.0,89,0.00,,,0.00,0,Wunderground v.1.15,2013-09-02 08:04:00,
2013-09-02 03:09:00,63.0,59.7,29.93,WNW,300,0.0,5.0,89,0.00,,,0.00,0,Wunderground v.1.15,2013-09-02 08:09:00,
2013-09-02 03:14:00,63.0,59.7,29.93,WNW,300,1.0,2.0,89,0.00,,,0.00,0,Wunderground v.1.15,2013-09-02 08:14:00,
2013-09-02 03:19:00,63.0,59.7,29.93,WNW,294,0.0,7.0,89,0.00,,,0.00,0,Wunderground v.1.15,2013-09-02 08:19:00,
2013-09-02 03:24:00,63.1,59.8,29.93,NW,304,6.0,7.0,89,0.00,,,0.00,0,Wunderground v.1.15,2013-09-02 08:24:00,
2013-09-02 03:29:00,63.1,59.8,29.93,NW,313,5.0,7.0,89,0.00,,,0.00,0,Wunderground v.1.15,2013-09-02 08:29:00,
2013-09-02 03:34:00,63.1,59.8,29.94,WNW,299,0.0,6.0,89,0.00,,,0.00,0,Wunderground v.1.15,2013-09-02 08:34:00,
2013-09-02 03:39:00,63.1,59.5,29.94,WNW,286,6.0,7.0,88,0.00,,,0.00,0,Wunderground v.1.15,2013-09-02 08:39:00,
2013-09-02 03:44:00,63.0,59.4,29.94,NW,313,2.0,8.0,88,0.00,,,0.00,0,Wunderground v.1.15,2013-09-02 08:44:00,
2013-09-02 03:49:00,63.0,59.4,29.94,NW,312,8.0,8.0,88,0.00,,,0.00,0,Wunderground v.1.15,2013-09-02 08:49:00,
2013-09-02 03:54:00,63.0,59.1,29.94,NW,315,2.0,9.0,87,0.00,,,0.00,0,Wunderground v.1.15,2013-09-02 08:54:00,
2013-09-02 03:59:00,63.0,59.1,29.94,WNW,302,6.0,11.0,87,0.00,,,0.00,0,Wunderground v.1.15,2013-09-02 08:59:00,
2013-09-02 04:05:00,62.9,59.0,29.95,NNW,327,0.0,11.0,87,0.00,,,0.00,0,Wunderground v.1.15,2013-09-02 09:05:00,
2013-09-02 04:10:00,62.8,58.9,29.94,NW,316,7.0,7.0,87,0.00,,,0.00,0,Wunderground v.1.15,2013-09-02 09:10:00,
2013-09-02 04:15:00,62.6,58.7,29.94,NW,326,6.0,13.0,87,0.00,,,0.00,0,Wunderground v.1.15,2013-09-02 09:15:00,
2013-09-02 04:20:00,62.5,58.3,29.95,NW,317,6.0,6.0,86,0.00,,,0.00,0,Wunderground v.1.15,2013-09-02 09:20:00,
2013-09-02 04:25:00,62.2,58.3,29.95,WNW,295,2.0,9.0,87,0.00,,,0.00,0,Wunderground v.1.15,2013-09-02 09:25:00,
2013-09-02 04:30:00,62.0,58.1,29.95,NW,322,2.0,5.0,87,0.00,,,0.00,0,Wunderground v.1.15,2013-09-02 09:30:00,
2013-09-02 04:35:00,61.8,57.6,29.95,NW,314,6.0,9.0,86,0.00,,,0.00,0,Wunderground v.1.15,2013-09-02 09:35:00,
2013-09-02 04:40:00,61.6,57.4,29.95,NW,317,0.0,4.0,86,0.00,,,0.00,0,Wunderground v.1.15,2013-09-02 09:40:00,
2013-09-02 04:45:00,61.4,57.5,29.95,NW,304,0.0,8.0,87,0.00,,,0.00,0,Wunderground v.1.15,2013-09-02 09:45:00,
2013-09-02 04:50:00,61.2,57.3,29.95,NW,308,6.0,12.0,87,0.00,,,0.00,0,Wunderground v.1.15,2013-09-02 09:50:00,
2013-09-02 04:55:00,61.0,57.1,29.95,North,349,7.0,12.0,87,0.00,,,0.00,0,Wunderground v.1.15,2013-09-02 09:55:00,
2013-09-02 05:00:00,60.9,57.0,29.95,WNW,298,8.0,8.0,87,0.00,,,0.00,0,Wunderground v.1.15,2013-09-02 10:00:00,
2013-09-02 05:05:00,60.8,57.2,29.95,NW,313,1.0,10.0,88,0.00,,,0.00,0,Wunderground v.1.15,2013-09-02 10:05:00,
2013-09-02 05:10:00,60.7,57.1,29.95,NW,308,2.0,6.0,88,0.00,,,0.00,0,Wunderground v.1.15,2013-09-02 10:10:00,
2013-09-02 05:15:00,60.6,57.0,29.96,NNW,344,1.0,9.0,88,0.00,,,0.00,0,Wunderground v.1.15,2013-09-02 10:15:00,
2013-09-02 05:20:00,60.4,56.8,29.96,WNW,296,6.0,7.0,88,0.00,,,0.00,0,Wunderground v.1.15,2013-09-02 10:20:00,
2013-09-02 05:26:00,60.3,57.0,29.96,WNW,301,5.0,7.0,89,0.00,,,0.00,0,Wunderground v.1.15,2013-09-02 10:26:00,
2013-09-02 05:31:00,60.1,56.8,29.96,NW,309,4.0,5.0,89,0.00,,,0.00,0,Wunderground v.1.15,2013-09-02 10:31:00,
2013-09-02 05:36:00,60.0,56.7,29.96,NW,321,5.0,5.0,89,0.00,,,0.00,0,Wunderground v.1.15,2013-09-02 10:36:00,
2013-09-02 05:41:00,59.8,56.6,29.96,WNW,300,0.0,6.0,89,0.00,,,0.00,0,Wunderground v.1.15,2013-09-02 10:41:00,
2013-09-02 05:46:00,59.6,56.7,29.96,NNW,329,2.0,9.0,90,0.00,,,0.00,0,Wunderground v.1.15,2013-09-02 10:46:00,
2013-09-02 05:51:00,59.5,56.6,29.96,North,5,0.0,5.0,90,0.00,,,0.00,0,Wunderground v.1.15,2013-09-02 10:51:00,
2013-09-02 05:56:00,59.3,56.4,29.97,WNW,288,0.0,7.0,90,0.00,,,0.00,0,Wunderground v.1.15,2013-09-02 10:56:00,
2013-09-02 06:01:00,59.2,56.6,29.97,NW,310,0.0,2.0,91,0.00,,,0.00,0,Wunderground v.1.15,2013-09-02 11:01:00,
2013-09-02 06:06:00,59.2,56.6,29.97,NW,309,0.0,7.0,91,0.00,,,0.00,0,Wunderground v.1.15,2013-09-02 11:06:00,
2013-09-02 06:11:00,59.1,56.5,29.97,NW,313,1.0,5.0,91,0.00,,,0.00,0,Wunderground v.1.15,2013-09-02 11:11:00,
2013-09-02 06:16:00,59.0,56.4,29.97,NW,312,1.0,7.0,91,0.00,,,0.00,0,Wunderground v.1.15,2013-09-02 11:16:00,
2013-09-02 06:21:00,59.0,56.7,29.97,NW,312,2.0,2.0,92,0.00,,,0.00,5,Wunderground v.1.15,2013-09-02 11:21:00,
2013-09-02 06:26:00,58.9,56.6,29.98,NW,310,0.0,5.0,92,0.00,,,0.00,5,Wunderground v.1.15,2013-09-02 11:26:00,
2013-09-02 06:31:00,59.0,56.7,29.98,NW,310,0.0,0.0,92,0.00,,,0.00,7,Wunderground v.1.15,2013-09-02 11:31:00,
2013-09-02 06:36:00,59.0,56.7,29.98,NW,310,0.0,1.0,92,0.00,,,0.00,11,Wunderground v.1.15,2013-09-02 11:36:00,
2013-09-02 06:41:00,59.1,56.8,29.98,NW,310,0.0,0.0,92,0.00,,,0.00,18,Wunderground v.1.15,2013-09-02 11:41:00,
2013-09-02 06:46:00,59.1,56.8,29.99,NW,310,0.0,4.0,92,0.00,,,0.00,21,Wunderground v.1.15,2013-09-02 11:46:00,
2013-09-02 06:51:00,59.3,57.0,29.99,NW,310,0.0,1.0,92,0.00,,,0.00,25,Wunderground v.1.15,2013-09-02 11:51:00,
2013-09-02 06:56:00,59.4,57.1,29.99,NW,310,0.0,2.0,92,0.00,,,0.00,33,Wunderground v.1.15,2013-09-02 11:56:00,
2013-09-02 07:01:00,59.5,57.2,29.99,NW,310,0.0,0.0,92,0.00,,,0.00,37,Wunderground v.1.15,2013-09-02 12:01:00,
2013-09-02 07:06:00,59.7,57.4,29.99,NW,310,1.0,4.0,92,0.00,,,0.00,35,Wunderground v.1.15,2013-09-02 12:06:00,
2013-09-02 07:11:00,59.8,57.5,30.00,NW,306,1.0,5.0,92,0.00,,,0.00,33,Wunderground v.1.15,2013-09-02 12:11:00,
2013-09-02 07:16:00,59.9,57.6,29.99,NW,306,0.0,5.0,92,0.00,,,0.00,46,Wunderground v.1.15,2013-09-02 12:16:00,
2013-09-02 07:21:00,60.0,57.4,30.00,NW,304,0.0,4.0,91,0.00,,,0.00,47,Wunderground v.1.15,2013-09-02 12:21:00,
2013-09-02 07:26:00,60.1,57.8,30.00,WNW,300,0.0,6.0,92,0.00,,,0.00,42,Wunderground v.1.15,2013-09-02 12:26:00,
2013-09-02 07:31:00,60.3,58.0,30.00,WNW,300,0.0,2.0,92,0.00,,,0.00,51,Wunderground v.1.15,2013-09-02 12:31:00,
2013-09-02 07:36:00,60.4,57.8,30.01,WNW,300,1.0,2.0,91,0.00,,,0.00,60,Wunderground v.1.15,2013-09-02 12:36:00,
2013-09-02 07:42:00,60.5,57.9,30.00,WNW,300,1.0,4.0,91,0.00,,,0.00,51,Wunderground v.1.15,2013-09-02 12:42:00,
2013-09-02 07:47:00,60.7,58.1,30.00,WNW,294,0.0,9.0,91,0.00,,,0.00,44,Wunderground v.1.15,2013-09-02 12:47:00,
2013-09-02 07:52:00,60.6,58.0,30.01,NW,314,0.0,2.0,91,0.00,,,0.00,54,Wunderground v.1.15,2013-09-02 12:52:00,
2013-09-02 07:57:00,60.6,58.0,30.01,NW,315,0.0,6.0,91,0.00,,,0.00,65,Wunderground v.1.15,2013-09-02 12:57:00,
2013-09-02 08:02:00,60.5,57.9,30.01,NW,317,1.0,2.0,91,0.00,,,0.00,60,Wunderground v.1.15,2013-09-02 13:02:00,
2013-09-02 08:07:00,60.4,57.8,30.01,NW,317,0.0,5.0,91,0.00,,,0.00,76,Wunderground v.1.15,2013-09-02 13:07:00,
2013-09-02 08:12:00,60.5,58.2,30.02,NW,317,0.0,0.0,92,0.00,,,0.00,95,Wunderground v.1.15,2013-09-02 13:12:00,
2013-09-02 08:17:00,60.5,57.9,30.02,NW,317,1.0,2.0,91,0.00,,,0.00,72,Wunderground v.1.15,2013-09-02 13:17:00,
2013-09-02 08:22:00,60.5,58.2,30.01,NW,316,0.0,1.0,92,0.00,,,0.00,63,Wunderground v.1.15,2013-09-02 13:22:00,
2013-09-02 08:27:00,60.6,58.3,30.02,NW,319,0.0,7.0,92,0.00,,,0.00,79,Wunderground v.1.15,2013-09-02 13:27:00,
2013-09-02 08:32:00,60.5,58.2,30.02,NNW,339,4.0,8.0,92,0.00,,,0.00,69,Wunderground v.1.15,2013-09-02 13:32:00,
2013-09-02 08:37:00,60.3,58.0,30.02,NNW,330,4.0,8.0,92,0.00,,,0.00,77,Wunderground v.1.15,2013-09-02 13:37:00,
2013-09-02 08:42:00,59.8,57.2,30.02,NNW,340,0.0,7.0,91,0.00,,,0.00,149,Wunderground v.1.15,2013-09-02 13:42:00,
2013-09-02 08:47:00,59.6,57.3,30.02,NW,317,0.0,7.0,92,0.00,,,0.00,162,Wunderground v.1.15,2013-09-02 13:47:00,
2013-09-02 08:52:00,59.5,57.2,30.02,NW,313,2.0,5.0,92,0.00,,,0.00,172,Wunderground v.1.15,2013-09-02 13:52:00,
2013-09-02 08:57:00,59.6,57.3,30.02,NW,326,0.0,9.0,92,0.00,,,0.00,214,Wunderground v.1.15,2013-09-02 13:57:00,
2013-09-02 09:02:00,59.8,57.5,30.02,WNW,298,1.0,5.0,92,0.00,,,0.00,214,Wunderground v.1.15,2013-09-02 14:02:00,
2013-09-02 09:07:00,60.0,57.1,30.03,NNW,332,0.0,9.0,90,0.00,,,0.00,214,Wunderground v.1.15,2013-09-02 14:07:00,
2013-09-02 09:12:00,60.2,56.9,30.03,NNW,338,0.0,7.0,89,0.00,,,0.00,236,Wunderground v.1.15,2013-09-02 14:12:00,
2013-09-02 09:17:00,60.5,56.9,30.03,NW,309,2.0,7.0,88,0.00,,,0.00,278,Wunderground v.1.15,2013-09-02 14:17:00,
2013-09-02 09:22:00,61.0,56.5,30.03,WNW,302,8.0,9.0,85,0.00,,,0.00,315,Wunderground v.1.15,2013-09-02 14:22:00,
2013-09-02 09:27:00,61.5,56.6,30.03,West,277,0.0,9.0,84,0.00,,,0.00,316,Wunderground v.1.15,2013-09-02 14:27:00,
2013-09-02 09:32:00,62.1,56.5,30.03,NW,311,0.0,6.0,82,0.00,,,0.00,327,Wunderground v.1.15,2013-09-02 14:32:00,
2013-09-02 09:37:00,62.8,57.6,30.03,WNW,290,7.0,8.0,83,0.00,,,0.00,487,Wunderground v.1.15,2013-09-02 14:37:00,
2013-09-02 09:42:00,63.2,56.9,30.03,WNW,302,1.0,11.0,80,0.00,,,0.00,478,Wunderground v.1.15,2013-09-02 14:42:00,
2013-09-02 09:47:00,63.5,57.2,30.04,WNW,302,5.0,11.0,80,0.00,,,0.00,258,Wunderground v.1.15,2013-09-02 14:47:00,
2013-09-02 09:52:00,63.4,57.5,30.04,WNW,288,5.0,11.0,81,0.00,,,0.00,315,Wunderground v.1.15,2013-09-02 14:52:00,
2013-09-02 09:57:00,63.5,57.6,30.04,WNW,286,4.0,11.0,81,0.00,,,0.00,260,Wunderground v.1.15,2013-09-02 14:57:00,
2013-09-02 10:02:00,63.7,57.8,30.04,WNW,290,4.0,12.0,81,0.00,,,0.00,195,Wunderground v.1.15,2013-09-02 15:02:00,
2013-09-02 10:08:00,63.5,57.2,30.04,WNW,297,7.0,12.0,80,0.00,,,0.00,165,Wunderground v.1.15,2013-09-02 15:08:00,
2013-09-02 10:12:00,63.3,57.0,30.04,WNW,287,2.0,9.0,80,0.00,,,0.00,227,Wunderground v.1.15,2013-09-02 15:12:00,
2013-09-02 10:18:00,63.2,56.9,30.04,NNW,329,6.0,9.0,80,0.00,,,0.00,315,Wunderground v.1.15,2013-09-02 15:18:00,
2013-09-02 10:23:00,63.3,56.3,30.04,WNW,300,0.0,8.0,78,0.00,,,0.00,364,Wunderground v.1.15,2013-09-02 15:23:00,
2013-09-02 10:28:00,63.7,56.7,30.03,NW,317,6.0,8.0,78,0.00,,,0.00,381,Wunderground v.1.15,2013-09-02 15:28:00,
2013-09-02 10:33:00,64.2,56.5,30.03,NNW,342,0.0,6.0,76,0.00,,,0.00,378,Wunderground v.1.15,2013-09-02 15:33:00,
2013-09-02 10:38:00,64.8,56.7,30.04,NE,39,0.0,8.0,75,0.00,,,0.00,287,Wunderground v.1.15,2013-09-02 15:38:00,
2013-09-02 10:43:00,65.1,55.8,30.04,WNW,292,8.0,12.0,72,0.00,,,0.00,265,Wunderground v.1.15,2013-09-02 15:43:00,
2013-09-02 10:48:00,64.8,55.6,30.04,WNW,288,2.0,12.0,72,0.00,,,0.00,265,Wunderground v.1.15,2013-09-02 15:48:00,
2013-09-02 10:53:00,64.5,55.7,30.04,NW,317,5.0,13.0,73,0.00,,,0.00,246,Wunderground v.1.15,2013-09-02 15:53:00,
2013-09-02 10:58:00,64.4,55.6,30.05,NW,322,1.0,13.0,73,0.00,,,0.00,311,Wunderground v.1.15,2013-09-02 15:58:00,
2013-09-02 11:03:00,64.5,56.0,30.04,WNW,301,2.0,9.0,74,0.00,,,0.00,274,Wunderground v.1.15,2013-09-02 16:03:00,
2013-09-02 11:08:00,64.7,56.2,30.05,NW,321,1.0,11.0,74,0.00,,,0.00,248,Wunderground v.1.15,2013-09-02 16:08:00,
2013-09-02 11:13:00,64.7,56.2,30.05,NW,306,2.0,6.0,74,0.00,,,0.00,309,Wunderground v.1.15,2013-09-02 16:13:00,
2013-09-02 11:18:00,64.8,55.9,30.05,NNW,346,7.0,8.0,73,0.00,,,0.00,345,Wunderground v.1.15,2013-09-02 16:18:00,
2013-09-02 11:23:00,64.9,55.7,30.05,NNW,341,7.0,12.0,72,0.00,,,0.00,355,Wunderground v.1.15,2013-09-02 16:23:00,
2013-09-02 11:28:00,64.9,56.0,30.05,NW,315,4.0,14.0,73,0.00,,,0.00,383,Wunderground v.1.15,2013-09-02 16:28:00,
2013-09-02 11:33:00,65.0,56.1,30.05,NW,306,6.0,11.0,73,0.00,,,0.00,371,Wunderground v.1.15,2013-09-02 16:33:00,
2013-09-02 11:38:00,65.0,55.8,30.05,NW,314,1.0,13.0,72,0.00,,,0.00,279,Wunderground v.1.15,2013-09-02 16:38:00,
2013-09-02 11:43:00,64.8,55.6,30.05,NW,319,12.0,12.0,72,0.00,,,0.00,260,Wunderground v.1.15,2013-09-02 16:43:00,
2013-09-02 11:48:00,64.5,55.3,30.05,NE,39,2.0,12.0,72,0.00,,,0.00,262,Wunderground v.1.15,2013-09-02 16:48:00,
2013-09-02 11:53:00,64.2,55.4,30.06,NW,304,6.0,9.0,73,0.00,,,0.00,283,Wunderground v.1.15,2013-09-02 16:53:00,
2013-09-02 11:58:00,64.2,55.4,30.05,NW,311,0.0,10.0,73,0.00,,,0.00,339,Wunderground v.1.15,2013-09-02 16:58:00,
2013-09-02 12:03:00,64.3,55.5,30.05,NNW,335,0.0,5.0,73,0.00,,,0.00,413,Wunderground v.1.15,2013-09-02 17:03:00,
2013-09-02 12:08:00,64.7,55.5,30.05,NW,319,2.0,11.0,72,0.00,,,0.00,619,Wunderground v.1.15,2013-09-02 17:08:00,
2013-09-02 12:13:00,65.1,55.1,30.05,NNW,343,8.0,12.0,70,0.00,,,0.00,550,Wunderground v.1.15,2013-09-02 17:13:00,
2013-09-02 12:18:00,65.4,55.4,30.05,NW,313,2.0,12.0,70,0.00,,,0.00,406,Wunderground v.1.15,2013-09-02 17:18:00,
2013-09-02 12:23:00,65.4,55.0,30.06,NW,309,12.0,12.0,69,0.00,,,0.00,332,Wunderground v.1.15,2013-09-02 17:23:00,
2013-09-02 12:28:00,65.2,55.2,30.05,NE,42,5.0,12.0,70,0.00,,,0.00,445,Wunderground v.1.15,2013-09-02 17:28:00,
2013-09-02 12:33:00,65.7,55.6,30.05,WNW,288,8.0,9.0,70,0.00,,,0.00,700,Wunderground v.1.15,2013-09-02 17:33:00,
2013-09-02 12:38:00,65.8,54.5,30.05,West,276,0.0,12.0,67,0.00,,,0.00,587,Wunderground v.1.15,2013-09-02 17:38:00,
2013-09-02 12:43:00,66.3,55.8,30.05,NW,315,0.0,13.0,69,0.00,,,0.00,374,Wunderground v.1.15,2013-09-02 17:43:00,
2013-09-02 12:48:00,66.5,55.6,30.06,NNW,332,0.0,14.0,68,0.00,,,0.00,439,Wunderground v.1.15,2013-09-02 17:48:00,
2013-09-02 12:53:00,66.4,55.1,30.06,NNW,330,0.0,9.0,67,0.00,,,0.00,496,Wunderground v.1.15,2013-09-02 17:53:00,
2013-09-02 12:58:00,66.4,55.1,30.06,West,278,0.0,12.0,67,0.00,,,0.00,455,Wunderground v.1.15,2013-09-02 17:58:00,
2013-09-02 13:03:00,66.1,54.4,30.06,NNW,340,5.0,12.0,66,0.00,,,0.00,473,Wunderground v.1.15,2013-09-02 18:03:00,
2013-09-02 13:08:00,66.1,54.8,30.06,NW,313,9.0,13.0,67,0.00,,,0.00,438,Wunderground v.1.15,2013-09-02 18:08:00,
2013-09-02 13:13:00,66.1,54.4,30.06,WNW,284,6.0,9.0,66,0.00,,,0.00,598,Wunderground v.1.15,2013-09-02 18:13:00,
2013-09-02 13:18:00,66.1,54.4,30.06,NW,310,0.0,15.0,66,0.00,,,0.00,448,Wunderground v.1.15,2013-09-02 18:18:00,
2013-09-02 13:23:00,66.6,55.3,30.05,NNW,336,0.0,9.0,67,0.00,,,0.00,1046,Wunderground v.1.15,2013-09-02 18:23:00,
2013-09-02 13:28:00,67.0,54.4,30.05,NNW,333,1.0,12.0,64,0.00,,,0.00,1143,Wunderground v.1.15,2013-09-02 18:28:00,
2013-09-02 13:33:00,66.8,54.2,30.06,NW,306,4.0,12.0,64,0.00,,,0.00,1095,Wunderground v.1.15,2013-09-02 18:33:00,
2013-09-02 13:38:00,67.0,54.4,30.05,NNW,332,0.0,12.0,64,0.00,,,0.00,543,Wunderground v.1.15,2013-09-02 18:38:00,
2013-09-02 13:43:00,67.0,54.4,30.05,NW,307,5.0,13.0,64,0.00,,,0.00,448,Wunderground v.1.15,2013-09-02 18:43:00,
2013-09-02 13:49:00,66.8,54.7,30.05,NNW,331,5.0,13.0,65,0.00,,,0.00,378,Wunderground v.1.15,2013-09-02 18:49:00,
2013-09-02 13:54:00,66.8,54.7,30.05,WNW,296,8.0,10.0,65,0.00,,,0.00,439,Wunderground v.1.15,2013-09-02 18:54:00,
2013-09-02 13:59:00,66.4,54.7,30.05,NW,321,1.0,15.0,66,0.00,,,0.00,462,Wunderground v.1.15,2013-09-02 18:59:00,
2013-09-02 14:04:00,67.0,55.7,30.05,NNW,339,8.0,8.0,67,0.00,,,0.00,482,Wunderground v.1.15,2013-09-02 19:04:00,
2013-09-02 14:09:00,67.6,55.4,30.05,NW,312,5.0,10.0,65,0.00,,,0.00,1223,Wunderground v.1.15,2013-09-02 19:09:00,
2013-09-02 14:14:00,68.1,55.9,30.05,NW,304,6.0,7.0,65,0.00,,,0.00,411,Wunderground v.1.15,2013-09-02 19:14:00,
2013-09-02 14:19:00,67.9,55.3,30.05,NNW,338,2.0,10.0,64,0.00,,,0.00,666,Wunderground v.1.15,2013-09-02 19:19:00,
2013-09-02 14:24:00,67.8,55.2,30.05,NW,320,2.0,12.0,64,0.00,,,0.00,327,Wunderground v.1.15,2013-09-02 19:24:00,
2013-09-02 14:29:00,67.6,54.6,30.05,WNW,292,0.0,12.0,63,0.00,,,0.00,320,Wunderground v.1.15,2013-09-02 19:29:00,
2013-09-02 14:34:00,67.6,55.0,30.05,NNE,31,3.0,10.0,64,0.00,,,0.00,346,Wunderground v.1.15,2013-09-02 19:34:00,
2013-09-02 14:39:00,67.9,54.8,30.05,NE,37,8.0,12.0,63,0.00,,,0.00,343,Wunderground v.1.15,2013-09-02 19:39:00,
2013-09-02 14:44:00,67.8,55.6,30.05,WNW,303,5.0,13.0,65,0.00,,,0.00,352,Wunderground v.1.15,2013-09-02 19:44:00,
2013-09-02 14:49:00,67.7,56.8,30.05,North,5,2.0,13.0,68,0.00,,,0.00,404,Wunderground v.1.15,2013-09-02 19:49:00,
2013-09-02 14:54:00,67.7,55.5,30.05,North,349,2.0,9.0,65,0.00,,,0.00,334,Wunderground v.1.15,2013-09-02 19:54:00,
2013-09-02 14:59:00,68.1,55.9,30.05,NW,317,6.0,9.0,65,0.00,,,0.00,452,Wunderground v.1.15,2013-09-02 19:59:00,
2013-09-02 15:04:00,67.8,55.6,30.05,NNW,343,1.0,14.0,65,0.00,,,0.00,998,Wunderground v.1.15,2013-09-02 20:04:00,
2013-09-02 15:09:00,68.2,54.7,30.05,NNW,331,5.0,16.0,62,0.00,,,0.00,225,Wunderground v.1.15,2013-09-02 20:09:00,
2013-09-02 15:14:00,68.0,54.9,30.05,NNW,327,4.0,8.0,63,0.00,,,0.00,225,Wunderground v.1.15,2013-09-02 20:14:00,
2013-09-02 15:19:00,68.1,54.6,30.05,WNW,301,2.0,12.0,62,0.00,,,0.00,921,Wunderground v.1.15,2013-09-02 20:19:00,
2013-09-02 15:24:00,68.8,56.1,30.05,NW,319,9.0,9.0,64,0.00,,,0.00,1016,Wunderground v.1.15,2013-09-02 20:24:00,
2013-09-02 15:29:00,69.4,55.4,30.05,WNW,296,1.0,13.0,61,0.00,,,0.00,376,Wunderground v.1.15,2013-09-02 20:29:00,
2013-09-02 15:34:00,69.0,55.0,30.05,WNW,302,5.0,9.0,61,0.00,,,0.00,371,Wunderground v.1.15,2013-09-02 20:34:00,
2013-09-02 15:39:00,68.6,54.6,30.04,West,275,4.0,14.0,61,0.00,,,0.00,789,Wunderground v.1.15,2013-09-02 20:39:00,
2013-09-02 15:44:00,68.9,54.4,30.05,NW,311,2.0,12.0,60,0.00,,,0.00,309,Wunderground v.1.15,2013-09-02 20:44:00,
2013-09-02 15:49:00,68.9,55.3,30.05,NW,322,7.0,12.0,62,0.00,,,0.00,260,Wunderground v.1.15,2013-09-02 20:49:00,
2013-09-02 15:55:00,68.5,55.0,30.05,West,281,7.0,11.0,62,0.00,,,0.00,211,Wunderground v.1.15,2013-09-02 20:55:00,
2013-09-02 16:00:00,68.2,55.1,30.05,NW,320,8.0,11.0,63,0.00,,,0.00,285,Wunderground v.1.15,2013-09-02 21:00:00,
2013-09-02 16:05:00,67.9,54.4,30.05,NW,321,7.0,11.0,62,0.00,,,0.00,285,Wunderground v.1.15,2013-09-02 21:05:00,
2013-09-02 16:10:00,67.5,54.9,30.05,NW,315,5.0,9.0,64,0.00,,,0.00,315,Wunderground v.1.15,2013-09-02 21:10:00,
2013-09-02 16:15:00,67.5,54.5,30.04,WNW,282,7.0,12.0,63,0.00,,,0.00,656,Wunderground v.1.15,2013-09-02 21:15:00,
2013-09-02 16:20:00,67.8,54.3,30.04,NNW,328,2.0,6.0,62,0.00,,,0.00,348,Wunderground v.1.15,2013-09-02 21:20:00,
2013-09-02 16:25:00,67.8,54.7,30.04,NNW,341,1.0,11.0,63,0.00,,,0.00,603,Wunderground v.1.15,2013-09-02 21:25:00,
2013-09-02 16:30:00,68.2,55.6,30.04,West,279,8.0,8.0,64,0.00,,,0.00,578,Wunderground v.1.15,2013-09-02 21:30:00,
2013-09-02 16:35:00,68.4,54.9,30.04,WNW,292,6.0,12.0,62,0.00,,,0.00,629,Wunderground v.1.15,2013-09-02 21:35:00,
2013-09-02 16:40:00,68.4,54.4,30.04,West,279,9.0,14.0,61,0.00,,,0.00,594,Wunderground v.1.15,2013-09-02 21:40:00,
2013-09-02 16:45:00,68.2,55.1,30.04,NW,323,6.0,14.0,63,0.00,,,0.00,504,Wunderground v.1.15,2013-09-02 21:45:00,
2013-09-02 16:50:00,68.2,55.6,30.05,NW,317,2.0,5.0,64,0.00,,,0.00,520,Wunderground v.1.15,2013-09-02 21:50:00,
2013-09-02 16:55:00,68.4,54.9,30.05,NW,323,2.0,8.0,62,0.00,,,0.00,118,Wunderground v.1.15,2013-09-02 21:55:00,
2013-09-02 17:00:00,68.1,55.0,30.05,WNW,291,8.0,8.0,63,0.00,,,0.00,271,Wunderground v.1.15,2013-09-02 22:00:00,
2013-09-02 17:06:00,67.6,54.6,30.05,NW,310,1.0,11.0,63,0.00,,,0.00,218,Wunderground v.1.15,2013-09-02 22:06:00,
2013-09-02 17:11:00,67.3,54.3,30.05,NW,322,1.0,4.0,63,0.00,,,0.00,128,Wunderground v.1.15,2013-09-02 22:11:00,
2013-09-02 17:16:00,67.2,54.6,30.05,NNW,334,0.0,13.0,64,0.00,,,0.00,425,Wunderground v.1.15,2013-09-02 22:16:00,
2013-09-02 17:21:00,67.4,54.8,30.05,NNW,348,0.0,8.0,64,0.00,,,0.00,394,Wunderground v.1.15,2013-09-02 22:21:00,
2013-09-02 17:26:00,67.8,54.7,30.05,NNW,327,5.0,12.0,63,0.00,,,0.00,397,Wunderground v.1.15,2013-09-02 22:26:00,
2013-09-02 17:31:00,67.7,54.6,30.05,NW,306,1.0,7.0,63,0.00,,,0.00,345,Wunderground v.1.15,2013-09-02 22:31:00,
2013-09-02 17:36:00,67.5,54.5,30.05,NW,317,6.0,14.0,63,0.00,,,0.00,313,Wunderground v.1.15,2013-09-02 22:36:00,
2013-09-02 17:41:00,67.3,54.7,30.05,NNW,333,5.0,7.0,64,0.00,,,0.00,302,Wunderground v.1.15,2013-09-02 22:41:00,
2013-09-02 17:46:00,67.3,54.7,30.05,NW,311,7.0,9.0,64,0.00,,,0.00,297,Wunderground v.1.15,2013-09-02 22:46:00,
2013-09-02 17:51:00,67.2,54.6,30.05,WNW,302,0.0,3.0,64,0.00,,,0.00,267,Wunderground v.1.15,2013-09-02 22:51:00,
2013-09-02 17:56:00,67.4,54.8,30.06,North,360,6.0,12.0,64,0.00,,,0.00,250,Wunderground v.1.15,2013-09-02 22:56:00,
2013-09-02 18:01:00,67.6,55.0,30.06,NNE,14,1.0,5.0,64,0.00,,,0.00,229,Wunderground v.1.15,2013-09-02 23:01:00,
2013-09-02 18:06:00,67.7,54.6,30.06,NW,324,4.0,7.0,63,0.00,,,0.00,213,Wunderground v.1.15,2013-09-02 23:06:00,
2013-09-02 18:11:00,67.6,55.0,30.06,NNW,342,6.0,6.0,64,0.00,,,0.00,190,Wunderground v.1.15,2013-09-02 23:11:00,
2013-09-02 18:16:00,67.5,55.3,30.06,NNW,338,0.0,7.0,65,0.00,,,0.00,172,Wunderground v.1.15,2013-09-02 23:16:00,
2013-09-02 18:21:00,67.4,54.8,30.06,NNE,26,1.0,5.0,64,0.00,,,0.00,155,Wunderground v.1.15,2013-09-02 23:21:00,
2013-09-02 18:26:00,67.1,54.5,30.06,North,360,0.0,5.0,64,0.00,,,0.00,132,Wunderground v.1.15,2013-09-02 23:26:00,
2013-09-02 18:31:00,67.1,54.5,30.06,NNE,13,0.0,2.0,64,0.00,,,0.00,114,Wunderground v.1.15,2013-09-02 23:31:00,
2013-09-02 18:36:00,66.8,54.7,30.06,NNE,13,2.0,3.0,65,0.00,,,0.00,100,Wunderground v.1.15,2013-09-02 23:36:00,
2013-09-02 18:41:00,66.5,54.4,30.06,NNW,336,0.0,6.0,65,0.00,,,0.00,83,Wunderground v.1.15,2013-09-02 23:41:00,
2013-09-02 18:46:00,66.1,54.0,30.06,NNW,343,0.0,10.0,65,0.00,,,0.00,69,Wunderground v.1.15,2013-09-02 23:46:00,
2013-09-02 18:51:00,65.6,53.9,30.06,NNW,348,0.0,2.0,66,0.00,,,0.00,42,Wunderground v.1.15,2013-09-02 23:51:00,
2013-09-02 18:57:00,65.0,54.2,30.06,North,349,2.0,10.0,68,0.00,,,0.00,21,Wunderground v.1.15,2013-09-02 23:57:00,
2013-09-02 19:02:00,64.4,54.0,30.06,NNW,344,2.0,7.0,69,0.00,,,0.00,18,Wunderground v.1.15,2013-09-03 00:02:00,
2013-09-02 19:07:00,63.8,53.8,30.06,North,5,0.0,7.0,70,0.00,,,0.00,16,Wunderground v.1.15,2013-09-03 00:07:00,
2013-09-02 19:12:00,63.2,53.3,30.06,NNW,331,0.0,7.0,70,0.00,,,0.00,14,Wunderground v.1.15,2013-09-03 00:12:00,
2013-09-02 19:17:00,62.7,53.2,30.07,North,355,4.0,7.0,71,0.00,,,0.00,12,Wunderground v.1.15,2013-09-03 00:17:00,
2013-09-02 19:22:00,62.3,53.2,30.06,North,5,0.0,3.0,72,0.00,,,0.00,9,Wunderground v.1.15,2013-09-03 00:22:00,
2013-09-02 19:27:00,61.8,53.1,30.06,North,9,0.0,4.0,73,0.00,,,0.00,7,Wunderground v.1.15,2013-09-03 00:27:00,
2013-09-02 19:32:00,61.3,52.9,30.06,North,349,0.0,1.0,74,0.00,,,0.00,5,Wunderground v.1.15,2013-09-03 00:32:00,
2013-09-02 19:37:00,60.8,52.8,30.07,North,350,0.0,4.0,75,0.00,,,0.00,0,Wunderground v.1.15,2013-09-03 00:37:00,
2013-09-02 19:42:00,60.4,52.8,30.07,North,350,0.0,1.0,76,0.00,,,0.00,0,Wunderground v.1.15,2013-09-03 00:42:00,
2013-09-02 19:47:00,60.0,52.4,30.07,North,350,1.0,1.0,76,0.00,,,0.00,0,Wunderground v.1.15,2013-09-03 00:47:00,
2013-09-02 19:52:00,59.6,52.4,30.07,North,350,0.0,1.0,77,0.00,,,0.00,0,Wunderground v.1.15,2013-09-03 00:52:00,
2013-09-02 19:57:00,59.3,52.4,30.07,North,350,0.0,1.0,78,0.00,,,0.00,0,Wunderground v.1.15,2013-09-03 00:57:00,
2013-09-02 20:02:00,59.0,52.1,30.07,North,350,0.0,0.0,78,0.00,,,0.00,0,Wunderground v.1.15,2013-09-03 01:02:00,
2013-09-02 20:07:00,58.7,52.2,30.07,North,350,0.0,0.0,79,0.00,,,0.00,0,Wunderground v.1.15,2013-09-03 01:07:00,
2013-09-02 20:12:00,58.3,51.8,30.07,North,350,0.0,0.0,79,0.00,,,0.00,0,Wunderground v.1.15,2013-09-03 01:12:00,
2013-09-02 20:17:00,58.0,51.9,30.08,North,350,0.0,1.0,80,0.00,,,0.00,0,Wunderground v.1.15,2013-09-03 01:17:00,
2013-09-02 20:22:00,57.7,51.9,30.08,North,350,0.0,0.0,81,0.00,,,0.00,0,Wunderground v.1.15,2013-09-03 01:22:00,
2013-09-02 20:27:00,57.4,51.6,30.08,North,350,0.0,0.0,81,0.00,,,0.00,0,Wunderground v.1.15,2013-09-03 01:27:00,
2013-09-02 20:32:00,57.2,51.4,30.08,North,350,0.0,1.0,81,0.00,,,0.00,0,Wunderground v.1.15,2013-09-03 01:32:00,
2013-09-02 20:37:00,56.9,51.1,30.08,North,350,0.0,1.0,81,0.00,,,0.00,0,Wunderground v.1.15,2013-09-03 01:37:00,
2013-09-02 20:42:00,56.7,51.3,30.08,North,350,0.0,0.0,82,0.00,,,0.00,0,Wunderground v.1.15,2013-09-03 01:42:00,
2013-09-02 20:47:00,56.4,51.0,30.08,North,350,0.0,1.0,82,0.00,,,0.00,0,Wunderground v.1.15,2013-09-03 01:47:00,
2013-09-02 20:52:00,56.2,51.1,30.08,North,350,0.0,0.0,83,0.00,,,0.00,0,Wunderground v.1.15,2013-09-03 01:52:00,
2013-09-02 20:57:00,56.0,50.9,30.08,North,350,0.0,0.0,83,0.00,,,0.00,0,Wunderground v.1.15,2013-09-03 01:57:00,
2013-09-02 21:02:00,55.8,51.0,30.08,North,350,0.0,0.0,84,0.00,,,0.00,0,Wunderground v.1.15,2013-09-03 02:02:00,
2013-09-02 21:07:00,55.6,50.8,30.08,North,350,0.0,0.0,84,0.00,,,0.00,0,Wunderground v.1.15,2013-09-03 02:07:00,
2013-09-02 21:12:00,55.4,50.6,30.09,North,350,0.0,0.0,84,0.00,,,0.00,0,Wunderground v.1.15,2013-09-03 02:12:00,
2013-09-02 21:17:00,55.2,50.4,30.09,North,350,0.0,0.0,84,0.00,,,0.00,0,Wunderground v.1.15,2013-09-03 02:17:00,
2013-09-02 21:22:00,54.9,50.5,30.09,North,350,0.0,1.0,85,0.00,,,0.00,0,Wunderground v.1.15,2013-09-03 02:22:00,
2013-09-02 21:27:00,54.6,50.2,30.09,North,350,0.0,1.0,85,0.00,,,0.00,0,Wunderground v.1.15,2013-09-03 02:27:00,
2013-09-02 21:32:00,54.3,50.2,30.09,North,350,0.0,0.0,86,0.00,,,0.00,0,Wunderground v.1.15,2013-09-03 02:32:00,
2013-09-02 21:37:00,54.1,50.0,30.09,North,350,0.0,0.0,86,0.00,,,0.00,0,Wunderground v.1.15,2013-09-03 02:37:00,
2013-09-02 21:43:00,53.8,49.7,30.09,North,350,0.0,0.0,86,0.00,,,0.00,0,Wunderground v.1.15,2013-09-03 02:43:00,
2013-09-02 21:48:00,53.5,49.7,30.09,North,350,0.0,0.0,87,0.00,,,0.00,0,Wunderground v.1.15,2013-09-03 02:48:00,
2013-09-02 21:53:00,53.2,49.7,30.09,North,350,0.0,0.0,88,0.00,,,0.00,0,Wunderground v.1.15,2013-09-03 02:53:00,
2013-09-02 21:58:00,53.0,49.5,30.09,North,350,0.0,1.0,88,0.00,,,0.00,0,Wunderground v.1.15,2013-09-03 02:58:00,
2013-09-02 22:03:00,52.8,49.6,30.09,North,350,0.0,1.0,89,0.00,,,0.00,0,Wunderground v.1.15,2013-09-03 03:03:00,
2013-09-02 22:08:00,52.7,49.5,30.09,North,350,0.0,1.0,89,0.00,,,0.00,0,Wunderground v.1.15,2013-09-03 03:08:00,
2013-09-02 22:13:00,52.5,49.4,30.09,North,350,0.0,0.0,89,0.00,,,0.00,0,Wunderground v.1.15,2013-09-03 03:13:00,
2013-09-02 22:18:00,52.5,49.7,30.09,North,350,0.0,4.0,90,0.00,,,0.00,0,Wunderground v.1.15,2013-09-03 03:18:00,
2013-09-02 22:23:00,52.4,49.6,30.09,North,350,0.0,1.0,90,0.00,,,0.00,0,Wunderground v.1.15,2013-09-03 03:23:00,
2013-09-02 22:28:00,52.3,49.5,30.09,North,350,0.0,1.0,90,0.00,,,0.00,0,Wunderground v.1.15,2013-09-03 03:28:00,
2013-09-02 22:33:00,52.2,49.4,30.09,North,350,0.0,1.0,90,0.00,,,0.00,0,Wunderground v.1.15,2013-09-03 03:33:00,
2013-09-02 22:38:00,52.2,49.4,30.09,North,350,0.0,4.0,90,0.00,,,0.00,0,Wunderground v.1.15,2013-09-03 03:38:00,
2013-09-02 22:43:00,52.2,49.4,30.09,North,350,0.0,1.0,90,0.00,,,0.00,0,Wunderground v.1.15,2013-09-03 03:43:00,
2013-09-02 22:48:00,52.2,49.7,30.09,North,350,4.0,4.0,91,0.00,,,0.00,0,Wunderground v.1.15,2013-09-03 03:48:00,
2013-09-02 22:53:00,52.2,49.7,30.09,North,349,0.0,2.0,91,0.00,,,0.00,0,Wunderground v.1.15,2013-09-03 03:53:00,
2013-09-02 22:58:00,52.2,49.7,30.09,NNW,344,0.0,2.0,91,0.00,,,0.00,0,Wunderground v.1.15,2013-09-03 03:58:00,
2013-09-02 23:01:00,52.1,49.6,30.09,NNW,344,4.0,4.0,91,0.00,,,0.00,0,Wunderground v.1.15,2013-09-03 04:01:00,
2013-09-02 23:02:00,52.2,49.7,30.09,NNW,344,0.0,4.0,91,0.00,,,0.00,0,Wunderground v.1.15,2013-09-03 04:02:00,
2013-09-02 23:07:00,52.2,49.7,30.09,NNW,344,0.0,4.0,91,0.00,,,0.00,0,Wunderground v.1.15,2013-09-03 04:07:00,
2013-09-02 23:12:00,52.2,49.7,30.09,NNW,346,0.0,2.0,91,0.00,,,0.00,0,Wunderground v.1.15,2013-09-03 04:12:00,
2013-09-02 23:17:00,52.3,49.8,30.09,NNW,346,1.0,4.0,91,0.00,,,0.00,0,Wunderground v.1.15,2013-09-03 04:17:00,
2013-09-02 23:22:00,52.3,49.8,30.09,NNW,346,0.0,1.0,91,0.00,,,0.00,0,Wunderground v.1.15,2013-09-03 04:22:00,
2013-09-02 23:27:00,52.4,49.8,30.10,NNW,346,0.0,5.0,91,0.00,,,0.00,0,Wunderground v.1.15,2013-09-03 04:27:00,
2013-09-02 23:32:00,52.4,49.8,30.10,NNW,347,0.0,1.0,91,0.00,,,0.00,0,Wunderground v.1.15,2013-09-03 04:32:00,
2013-09-02 23:37:00,52.5,49.9,30.10,NNW,348,0.0,4.0,91,0.00,,,0.00,0,Wunderground v.1.15,2013-09-03 04:37:00,
2013-09-02 23:42:00,52.5,49.9,30.10,NNW,347,0.0,2.0,91,0.00,,,0.00,0,Wunderground v.1.15,2013-09-03 04:42:00,
2013-09-02 23:47:00,52.6,50.0,30.10,NNW,341,0.0,5.0,91,0.00,,,0.00,0,Wunderground v.1.15,2013-09-03 04:47:00,
2013-09-02 23:52:00,52.6,50.0,30.10,NNW,334,0.0,4.0,91,0.00,,,0.00,0,Wunderground v.1.15,2013-09-03 04:52:00,
2013-09-02 23:57:00,52.7,49.8,30.09,NNE,22,0.0,6.0,90,0.00,,,0.00,0,Wunderground v.1.15,2013-09-03 04:57:00,